KE9LZ-9 Weather Reports


time (UTC)temp
F
wind
direction
speed
knots
gust
knots
rain 1hr
in
rain 24hr
in
rain mn
in
humidity
%
barometer
mb
20260906165004 76 164 0.0 2.6 0.00 0.00 0.00 64 1021.6
20260906164004 75 336 1.7 2.6 0.00 0.00 0.00 65 1021.8
20260906163004 76 166 0.9 4.3 0.00 0.00 0.00 64 1021.7
20260906162004 75 277 2.6 4.3 0.00 0.00 0.00 64 1021.8
20260906161004 75 309 0.9 4.3 0.00 0.00 0.00 66 1021.7
20260906160004 75 206 0.9 4.3 0.00 0.00 0.00 63 1021.8
20260906155003 75 311 0.9 4.3 0.00 0.00 0.00 61 1021.7
20260906154004 75 171 0.9 4.3 0.00 0.00 0.00 64 1021.6
20260906153004 74 68 1.7 4.3 0.00 0.00 0.00 67 1021.8
20260906152004 74 104 1.7 4.3 0.00 0.00 0.00 70 1021.9
20260906151003 73 307 1.7 4.3 0.00 0.00 0.00 68 1021.9
20260906145004 72 40 0.9 2.6 0.00 0.00 0.00 79 1021.9
20260906144003 71 356 1.7 2.6 0.00 0.00 0.00 81 1021.9
20260906143003 70 358 0.9 2.6 0.00 0.00 0.00 83 1022.1
20260906142004 71 36 0.9 2.6 0.00 0.00 0.00 81 1022.0
20260906141003 70 347 1.7 1.7 0.00 0.00 0.00 83 1022.0
20260906140004 69 6 0.9 0.9 0.00 0.00 0.00 84 1022.0
20260906135004 67 46 0.9 1.7 0.00 0.00 0.00 86 1022.0
20260906133004 65 1 0.0 1.7 0.00 0.00 0.00 90 1021.9
20260906131004 60 15 0.9 1.7 0.00 0.00 0.00 99 1022.0
20260906130004 60 346 0.0 1.7 0.00 0.00 0.00 99 1021.8
20260906125003 59 320 0.0 1.7 0.00 0.00 0.00 99 1021.8
20260906124004 55 9 0.9 4.3 0.00 0.00 0.00 99 1021.8
20260906123004 54 57 0.9 1.7 0.00 0.00 0.00 99 1021.8
20260906120004 52 3 0.9 1.7 0.00 0.00 0.00 99 1021.7
20260906115004 52 349 0.9 1.7 0.00 0.00 0.00 99 1021.7
20260906114004 51 12 0.0 4.3 0.00 0.00 0.00 99 1021.4
20260906113003 52 18 0.9 2.6 0.00 0.00 0.00 99 1021.4
20260906112004 52 28 0.0 1.7 0.00 0.00 0.00 99 1021.2
20260906111004 52 27 0.9 1.7 0.00 0.00 0.00 99 1021.2
20260906110004 52 2 0.9 1.7 0.00 0.00 0.00 99 1021.0
20260906105004 52 351 0.9 1.7 0.00 0.00 0.00 99 1020.9
20260906103004 52 21 0.9 1.7 0.00 0.00 0.00 99 1021.0
20260906101004 53 358 0.9 1.7 0.00 0.00 0.00 99 1020.9
20260906095004 53 352 0.9 0.9 0.00 0.00 0.00 99 1020.9
20260906094004 53 1 0.0 0.9 0.00 0.00 0.00 99 1020.7
20260906093003 53 351 0.0 1.7 0.00 0.00 0.00 99 1020.7
20260906092004 53 9 0.9 1.7 0.00 0.00 0.00 99 1020.6
20260906091004 54 24 0.9 1.7 0.00 0.00 0.00 99 1020.8
20260906085003 54 45 0.0 0.9 0.00 0.00 0.00 99 1020.8
20260906083003 54 50 0.0 1.7 0.00 0.00 0.00 99 1020.8
20260906081003 54 18 0.9 1.7 0.00 0.00 0.00 99 1020.4
20260906080004 54 18 0.0 0.9 0.00 0.00 0.00 99 1020.3
20260906075004 55 23 0.9 0.9 0.00 0.00 0.00 99 1020.3
20260906074004 55 355 0.9 1.7 0.00 0.00 0.00 99 1020.5
20260906073003 55 356 0.0 0.9 0.00 0.00 0.00 99 1020.4
20260906072004 54 11 0.0 0.9 0.00 0.00 0.00 99 1020.4
20260906071004 55 14 0.9 0.9 0.00 0.00 0.00 99 1020.4
20260906070004 55 336 0.9 0.9 0.00 0.00 0.00 99 1020.3
20260906065004 55 17 0.9 0.9 0.00 0.00 0.00 99 1020.5
20260906064004 55 14 0.9 1.7 0.00 0.00 0.00 99 1020.5
20260906062004 55 339 0.9 1.7 0.00 0.00 0.00 99 1020.5
20260906061004 56 2 0.9 1.7 0.00 0.00 0.00 99 1020.4
20260906060004 56 335 0.9 1.7 0.00 0.00 0.00 99 1020.3
20260906055004 56 330 0.9 0.9 0.00 0.00 0.00 99 1020.1
20260906054003 56 322 0.0 0.9 0.00 0.00 0.00 99 1020.0
20260906053004 56 341 0.9 0.9 0.00 0.00 0.00 99 1020.0
20260906052004 56 348 0.9 0.9 0.00 0.00 0.00 99 1019.5
20260906051003 57 352 0.9 0.9 0.00 0.00 0.00 99 1019.6
20260906050003 57 358 0.9 0.9 0.00 0.00 0.00 99 1019.6
20260906045004 57 358 0.0 0.9 0.00 0.00 0.00 99 1019.8
20260906044003 57 37 0.9 0.9 0.00 0.00 0.00 99 1019.6
20260906043003 57 342 0.9 1.7 0.00 0.00 0.00 99 1019.6
20260906042004 58 31 0.9 1.7 0.00 0.00 0.00 99 1019.6
20260906041003 57 357 0.9 0.9 0.00 0.00 0.00 99 1019.4
20260906040004 58 351 0.0 0.9 0.00 0.00 0.00 99 1019.5
20260906035003 58 0 0.0 0.9 0.00 0.00 0.00 99 1019.5
20260906033004 58 6 0.0 0.9 0.00 0.00 0.00 99 1019.5
20260906032004 59 356 0.9 1.7 0.00 0.00 0.00 99 1019.3
20260906031003 59 339 0.9 0.9 0.00 0.00 0.00 99 1019.3
20260906030004 59 336 0.0 0.9 0.00 0.00 0.00 99 1019.3
20260906025003 60 1 0.9 0.9 0.00 0.00 0.00 98 1019.1
20260906024004 60 327 0.0 0.9 0.00 0.00 0.00 98 1019.2
20260906022004 61 17 0.9 0.9 0.00 0.00 0.00 97 1019.1
20260906020004 61 357 0.9 1.7 0.00 0.00 0.00 96 1019.0
20260906015004 62 325 0.0 1.7 0.00 0.00 0.00 95 1018.9
20260906012004 63 322 0.9 1.7 0.00 0.00 0.00 92 1018.6
20260906011003 64 330 0.9 0.9 0.00 0.00 0.00 91 1018.5
20260906010004 65 22 0.0 0.9 0.00 0.00 0.00 89 1018.3
20260906005004 66 35 0.0 0.9 0.00 0.00 0.00 88 1018.4
20260906004004 67 7 0.0 0.9 0.00 0.00 0.00 86 1018.3
20260906003003 68 36 0.0 0.9 0.00 0.00 0.00 84 1018.4
20260906002003 69 352 0.0 0.9 0.00 0.00 0.00 82 1018.3
20260906001004 70 11 0.0 0.9 0.00 0.00 0.00 78 1018.3
20260906000004 71 350 0.9 1.7 0.00 0.00 0.00 75 1018.2
20260905235004 72 8 0.9 1.7 0.00 0.00 0.00 73 1018.2
20260905234004 73 3 0.9 2.6 0.00 0.00 0.00 71 1018.2
20260905233003 74 309 0.9 1.7 0.00 0.00 0.00 69 1018.1
20260905232004 75 77 0.9 2.6 0.00 0.01 0.00 68 1018.3
20260905231004 75 47 0.9 2.6 0.00 0.02 0.00 66 1018.4
20260905225004 76 74 1.7 5.2 0.00 0.04 0.00 66 1018.4
20260905224004 77 99 1.7 4.3 0.00 0.04 0.00 65 1018.1
20260905223004 77 77 0.9 2.6 0.00 0.04 0.00 66 1018.2
20260905222003 77 36 0.9 0.9 0.00 0.04 0.00 66 1018.3
20260905221004 77 55 0.9 1.7 0.00 0.04 0.00 64 1018.2
20260905220004 77 107 0.0 1.7 0.00 0.04 0.00 63 1018.2
20260905214004 77 93 1.7 2.6 0.00 0.04 0.00 62 1018.1
20260905213004 78 24 0.9 1.7 0.00 0.04 0.00 62 1018.0
20260905212004 78 93 0.9 4.3 0.00 0.04 0.00 61 1018.0
20260905211004 80 135 1.7 4.3 0.00 0.04 0.00 57 1018.0
20260905205004 80 121 1.7 2.6 0.00 0.04 0.00 60 1018.0
20260905203004 79 36 0.9 4.3 0.00 0.04 0.00 60 1018.0
20260905202004 78 306 0.9 2.6 0.00 0.04 0.00 64 1018.2
20260905201004 80 214 0.0 2.6 0.00 0.04 0.00 60 1018.1
20260905200003 79 344 0.9 2.6 0.00 0.04 0.00 62 1018.2
20260905195004 81 346 0.9 2.6 0.00 0.04 0.00 59 1018.1
20260905194004 79 106 1.7 5.2 0.00 0.04 0.00 62 1018.3
20260905193003 79 0 1.7 4.3 0.00 0.04 0.00 63 1018.2
20260905192004 78 7 0.9 2.6 0.00 0.04 0.00 63 1018.1
20260905190004 78 346 0.9 4.3 0.00 0.04 0.00 64 1018.3
20260905185003 78 346 1.7 4.3 0.00 0.04 0.00 64 1018.2
20260905184004 80 277 0.9 4.3 0.00 0.04 0.00 64 1018.5
20260905183004 79 27 1.7 2.6 0.00 0.04 0.00 65 1018.5
20260905182004 76 1 0.9 2.6 0.00 0.04 0.00 70 1018.4
20260905181004 79 339 0.9 4.3 0.00 0.04 0.00 67 1018.3
20260905180004 77 329 0.9 5.2 0.00 0.04 0.00 70 1018.5
20260905175004 77 91 1.7 6.1 0.00 0.04 0.00 68 1018.4
20260905174004 77 359 1.7 2.6 0.00 0.04 0.00 68 1018.5
20260905172004 76 66 0.9 5.2 0.00 0.04 0.00 71 1018.8
20260905171004 76 7 1.7 4.3 0.00 0.04 0.00 70 1019.1
20260905170004 76 283 1.7 4.3 0.00 0.04 0.00 71 1019.1